Retour au catalogue

SL-12 R/B

AUX MOTOR

ActifHEO
NORAD 15265·ROCKET BODY·🇷🇺 Russia

Lancé Sep 4, 1984 depuis Baikonur Cosmodrome

Loading…

Prochains Passages (prochaines 24 heures)

TLE

FraisSource: Space-Track

Époque: Sep 14, 2026, 14:19 UTC

1 15265U 84095G   26257.59670935  .00030655  00000-0  25562-2 0  9992
2 15265  51.9284 171.3923 4402174  53.5504 339.5523  6.69299805691583

Suivez SL-12 R/B en temps réel avec AllMySat

Download on the App Store